Vertical_Velocity
-0 -0 -0 -1 -1 -0 -0 -0 -0 1 2 -2 1 0 0 1 -1 0 1 -0 0 -1 0 -0 0 1 -3 3 -2 -9 5 2 8 9 -1 1 -1 -2 -1 0 0 -0 -1 -2 -1
0 1 -1 0 1 -1 1 1 1 0 -0 0 1 -0 1 1 -4 0 0 -0 -0 -0 -0 -5 1 2 3 -3 -3 5 -4 -2 -3 -3 -5 -0 -1 -0 -4 -7 -4 -2 -0 -0 -1
2 1 -0 0 -1 -1 0 -1 -1 1 1 1 -0 1 0 0 2 1 1 -1 -0 -0 -1 -1 4 2 -1 -2 -6 -7 -4 -4 0 1 -2 -7 -5 -4 -1 -0 -1 -2 0 -0 -2
0 -0 1 -0 1 -0 -1 -1 0 0 0 2 0 -0 0 -0 4 1 1 -1 -0 -2 -2 -1 -2 -2 -7 -4 -2 -3 2 -1 -2 -3 -4 -2 -4 -1 1 -1 1 3 -1 1 3
-0 -0 -0 -1 0 -2 0 -0 0 0 0 0 -1 -1 0 -1 -1 2 0 -0 -1 -1 -3 -2 2 -1 3 -0 5 3 -3 -3 -3 -3 -2 0 1 4 1 3 1 3 -2 -3 -4
0 0 -1 -1 -1 -0 1 0 1 0 0 0 -1 -1 -5 7 1 -0 -1 -1 -1 -3 -1 -1 -2 -2 -1 -4 -7 -4 -3 -4 -4 -2 -0 1 0 -1 -1 -1 -2 -3 -2 -2 -3
-0 0 -1 -2 -0 1 1 1 0 1 0 -1 -0 -2 -2 -4 -1 -0 -1 -1 -2 -1 0 -0 -0 0 -1 -4 -3 -2 -2 -1 1 3 0 0 -4 -1 -1 -0 1 -4 -2 -2 0
1 -1 -1 -0 1 1 1 1 -0 0 1 -0 -1 -2 -1 -1 -2 -1 -1 -3 -2 -0 -0 3 0 -1 -2 1 -3 -1 -4 0 2 0 -3 -0 1 1 -1 -1 -2 -0 -2 -0 -0
1 0 -1 0 1 1 1 -0 0 1 1 -1 -1 5 -2 -1 -1 0 -2 -2 -2 -2 1 -2 0 1 -3 -4 -3 -4 16 6 -1 3 3 1 -5 -0 -2 -4 -2 -2 -1 1 -1
0 1 -2 1 0 2 1 -1 0 1 -0 -1 1 2 0 -1 0 -1 -2 -2 -1 0 -2 1 -0 -1 1 4 14 10 5 -5 15 -9 -3 -1 -3 -6 0 4 1 2 -1 -2 -0
1 1 -1 1 0 3 -1 0 2 1 -1 -1 -1 1 -2 -1 -1 0 -1 -1 -1 -1 2 -1 10 0 -4 -1 -1 -1 -1 -0 -5 1 1 0 -6 1 2 1 -3 0 3 2 -0
1 1 -0 -0 1 -1 -1 -7 1 -2 -1 -1 -1 0 -1 -1 -1 -1 -1 -1 -1 1 -1 -2 -4 -2 -1 -1 -1 -0 -1 8 -3 -1 1 -4 -1 1 -0 -4 1 -1 0 0 -1
1 0 0 -1 1 -1 1 -0 1 5 1 -2 -0 -1 -1 -1 -1 -0 -2 1 0 -0 -0 2 -2 -1 -1 -1 -1 -1 -2 -1 1 -4 1 -1 -2 -4 -1 0 -1 -5 -4 -4 -4
1 0 1 0 2 0 -0 0 -0 -1 11 -1 -1 -1 -1 -1 -1 -0 -2 -1 0 1 -0 -1 -0 -0 -1 -3 -1 6 -0 1 2 -0 15 -1 5 -1 -3 -3 0 -1 1 3 -1
0 2 1 4 -5 -1 -1 -0 -0 -1 9 -2 -2 -1 -1 -0 -0 0 -1 -1 -2 -1 -0 -3 -2 0 -1 -2 -2 -5 -2 -1 0 1 6 0 1 -3 -0 1 2 5 -2 -4 -4
1 2 1 0 0 1 -0 -0 0 -2 5 -1 -1 -1 -3 -1 -0 -1 -1 -1 -2 -1 -0 -0 -1 -1 -3 -1 -1 -1 -7 -4 -0 -1 5 2 -0 6 1 3 0 -5 4 3 -1
1 2 0 -1 1 0 -1 -1 1 7 -2 -1 -1 -1 -1 -0 -1 -2 -2 -1 -2 1 4 -2 -1 -1 -0 -4 -4 1 -4 7 3 5 7 -3 0 3 -4 -2 1 2 -3 1 -0
1 2 0 -1 1 -0 -0 -6 8 -1 -2 -1 -1 -2 -1 -1 -1 -1 -2 -0 -2 -2 -2 2 8 -2 -2 -0 -1 -2 -6 5 3 3 -3 6 -1 0 -2 -1 -2 -4 -4 1 -3
1 0 1 0 1 -0 1 10 -1 -1 -1 -1 -1 -2 -1 -0 -1 -1 -1 -1 -1 -2 -2 -2 -0 -2 -1 -1 -1 -5 2 -2 -1 3 5 3 3 -1 -1 -3 -2 3 -2 -8 -3
2 1 2 1 1 -2 -3 -0 -1 -1 -1 -0 2 -0 3 0 -0 -0 0 -0 -1 -1 0 -1 2 -1 -2 -2 -0 -1 -2 5 3 2 -4 -14 5 9 -2 -1 1 3 -2 0 -0
1 1 -0 1 1 -0 3 -1 -2 -1 0 -1 -0 -1 -0 -0 -1 -1 -0 -1 -2 -2 -1 2 -2 -4 -2 -3 -0 -3 6 -4 -7 -4 4 1 4 -1 -1 3 0 -5 -2 -4 -4
1 1 -1 0 0 0 -1 -2 -1 -2 -1 -0 -0 -0 -1 -1 -1 -2 -1 -1 -2 -1 -1 -2 -1 -1 -3 -1 -2 0 -1 -1 1 6 0 -0 -0 -2 2 0 -1 0 -1 1 -2
1 2 1 0 2 -2 -2 -2 -1 -1 -1 -0 -1 -1 -1 -2 -1 -1 -1 -0 -1 -0 -1 -3 -2 2 -2 -1 -2 0 -5 0 1 -2 -6 8 4 -2 2 -1 1 -0 1 -1 -0
1 0 -1 1 1 -2 0 -1 -0 -1 -0 0 -0 -0 -1 -1 -1 -1 -2 -3 -1 0 -1 -1 -0 -1 2 1 4 2 -5 -0 0 -0 -2 -0 -4 18 12 1 -4 -2 -3 -2 -7
-2 -1 0 -2 -1 -1 -1 -1 -0 -1 -1 0 -1 -0 -1 -1 -1 -2 -1 -2 -1 -1 -1 0 -1 -1 -0 2 0 1 2 0 -2 -0 -1 -6 -2 3 -5 2 -2 -3 -2 1 -4
-2 0 1 0 3 0 -0 -2 0 -1 -1 -1 -1 -0 -1 -1 -1 -2 -1 -1 0 -1 -1 -0 -4 -2 -8 -0 0 -2 1 -1 -0 1 -3 4 -3 -6 3 -3 -4 -3 -3 -3 -0
-0 2 3 1 1 1 -3 -1 -1 -2 -1 0 -1 -1 -1 -2 -1 -2 -1 -1 0 -2 2 0 0 -0 -6 -2 -5 -5 -2 -2 -0 1 2 0 -6 1 2 -3 -5 2 -2 -4 -2
Height
3162 3163 3164 3164 3165 3166 3166 3167 3167 3167 3168 3168 3168 3168 3169 3170 3170 3171 3172 3174 3174 3175 3178 3179 3180 3181 3182 3183 3184 3186 3189 3189 3191 3191 3188 3189 3188 3188 3186 3187 3186 3185 3184 3183 3182
3164 3165 3166 3167 3168 3168 3168 3168 3168 3169 3169 3169 3170 3171 3172 3172 3173 3174 3176 3176 3177 3177 3179 3180 3182 3183 3184 3184 3185 3188 3188 3187 3188 3189 3189 3190 3189 3188 3188 3188 3187 3185 3183 3182 3180
3166 3167 3169 3169 3170 3170 3170 3170 3170 3170 3170 3171 3172 3174 3174 3175 3177 3177 3177 3178 3179 3179 3180 3181 3183 3184 3184 3185 3185 3186 3187 3188 3188 3189 3188 3189 3190 3189 3188 3186 3184 3183 3182 3180 3178
3167 3169 3170 3171 3171 3171 3171 3171 3171 3172 3173 3174 3175 3176 3177 3178 3182 3179 3179 3180 3180 3180 3182 3183 3185 3185 3184 3185 3186 3186 3187 3188 3188 3188 3188 3188 3188 3187 3186 3185 3183 3181 3180 3178 3175
3169 3170 3171 3172 3172 3172 3173 3174 3173 3174 3174 3176 3177 3178 3178 3180 3181 3181 3181 3182 3182 3182 3183 3185 3186 3186 3186 3186 3187 3187 3187 3187 3187 3188 3187 3187 3187 3185 3184 3182 3181 3179 3177 3174 3173
3170 3171 3172 3173 3174 3174 3175 3175 3175 3176 3177 3178 3179 3180 3181 3185 3183 3183 3183 3184 3184 3184 3185 3186 3186 3186 3186 3186 3188 3188 3189 3188 3188 3188 3188 3187 3185 3184 3182 3180 3178 3176 3173 3172 3169
3171 3172 3173 3174 3175 3175 3177 3177 3178 3178 3179 3180 3181 3182 3183 3185 3184 3185 3185 3186 3186 3186 3186 3187 3187 3188 3188 3188 3189 3189 3190 3189 3188 3188 3188 3187 3184 3183 3180 3179 3175 3173 3171 3169 3166
3172 3173 3174 3176 3177 3177 3179 3180 3180 3181 3182 3182 3183 3184 3186 3186 3186 3186 3187 3188 3188 3188 3188 3188 3188 3189 3189 3190 3190 3190 3190 3191 3189 3188 3187 3188 3184 3180 3179 3177 3174 3172 3169 3166 3162
3172 3174 3175 3177 3178 3179 3181 3182 3183 3184 3185 3185 3186 3188 3189 3188 3189 3189 3190 3190 3190 3189 3189 3190 3190 3191 3191 3192 3194 3194 3193 3193 3189 3188 3187 3187 3182 3178 3177 3174 3171 3169 3166 3162 3159
3173 3175 3177 3178 3180 3182 3183 3186 3187 3187 3188 3189 3189 3193 3192 3191 3191 3192 3192 3192 3192 3191 3192 3192 3193 3194 3195 3196 3194 3194 3194 3193 3194 3188 3186 3184 3178 3175 3174 3170 3169 3167 3163 3159 3156
3174 3176 3178 3180 3182 3184 3186 3189 3193 3192 3190 3190 3191 3192 3192 3193 3193 3193 3193 3194 3194 3194 3195 3195 3198 3196 3194 3194 3193 3193 3193 3192 3188 3187 3184 3181 3174 3171 3170 3168 3167 3164 3161 3158 3155
3175 3177 3179 3181 3184 3186 3188 3189 3192 3194 3193 3193 3194 3195 3194 3194 3195 3195 3195 3196 3196 3196 3196 3198 3195 3195 3194 3194 3193 3193 3194 3192 3187 3183 3181 3176 3172 3168 3167 3166 3165 3162 3160 3157 3152
3176 3179 3180 3183 3186 3189 3191 3193 3195 3196 3196 3197 3197 3197 3197 3197 3196 3196 3197 3196 3196 3196 3197 3197 3196 3195 3195 3194 3193 3193 3192 3190 3187 3179 3176 3174 3170 3165 3165 3163 3161 3159 3156 3152 3146
3178 3180 3182 3186 3191 3191 3194 3196 3197 3197 3200 3201 3199 3199 3199 3198 3199 3198 3197 3199 3197 3197 3197 3197 3196 3195 3194 3193 3192 3193 3190 3186 3182 3179 3179 3174 3172 3165 3164 3161 3158 3157 3153 3150 3144
3180 3182 3184 3188 3190 3194 3197 3197 3197 3198 3196 3204 3201 3200 3199 3201 3200 3199 3199 3198 3198 3197 3199 3198 3196 3195 3195 3193 3192 3191 3187 3182 3179 3178 3179 3174 3175 3165 3163 3160 3160 3157 3154 3148 3140
3182 3184 3187 3190 3194 3196 3197 3198 3199 3201 3202 3202 3201 3201 3201 3201 3200 3200 3200 3200 3198 3198 3197 3197 3197 3196 3194 3193 3190 3188 3183 3179 3177 3178 3175 3172 3173 3166 3163 3163 3160 3154 3149 3145 3139
3184 3186 3190 3192 3195 3197 3198 3199 3201 3199 3204 3204 3202 3202 3202 3202 3202 3201 3201 3200 3200 3200 3200 3197 3196 3195 3195 3192 3189 3189 3185 3179 3177 3172 3169 3170 3170 3165 3159 3157 3155 3152 3148 3141 3134
3185 3188 3192 3194 3196 3198 3199 3200 3201 3201 3201 3202 3203 3203 3203 3203 3203 3202 3202 3201 3201 3200 3200 3200 3197 3196 3195 3193 3192 3189 3188 3189 3185 3173 3172 3168 3166 3162 3156 3155 3152 3148 3142 3136 3130
3187 3190 3193 3195 3197 3199 3201 3202 3202 3201 3202 3203 3204 3204 3204 3203 3203 3202 3202 3202 3201 3200 3201 3199 3198 3196 3195 3193 3193 3191 3191 3189 3186 3178 3174 3164 3159 3157 3154 3152 3149 3146 3141 3134 3127
3189 3191 3194 3196 3198 3200 3201 3201 3201 3201 3202 3204 3205 3205 3206 3204 3204 3203 3203 3202 3201 3200 3199 3199 3198 3195 3194 3193 3192 3191 3190 3188 3186 3178 3170 3161 3157 3157 3153 3151 3147 3143 3137 3130 3124
3189 3192 3195 3197 3199 3201 3203 3202 3202 3203 3204 3204 3205 3205 3205 3205 3204 3204 3204 3203 3202 3200 3199 3198 3198 3197 3194 3192 3191 3190 3189 3187 3185 3183 3177 3163 3159 3155 3152 3149 3145 3139 3132 3127 3121
3189 3192 3195 3198 3201 3201 3202 3203 3204 3204 3204 3204 3205 3205 3205 3204 3204 3204 3204 3203 3202 3200 3198 3198 3197 3195 3193 3190 3189 3187 3185 3184 3184 3182 3179 3175 3159 3152 3149 3145 3140 3136 3131 3124 3116
3189 3192 3195 3197 3200 3201 3203 3204 3205 3205 3205 3205 3205 3205 3205 3205 3205 3204 3203 3203 3201 3200 3198 3197 3196 3195 3189 3190 3187 3184 3181 3180 3180 3179 3175 3174 3160 3150 3149 3143 3139 3134 3129 3122 3114
3190 3193 3195 3197 3199 3201 3203 3204 3204 3205 3205 3205 3205 3205 3204 3204 3204 3204 3203 3202 3201 3199 3197 3196 3195 3195 3194 3190 3185 3182 3178 3176 3175 3175 3170 3166 3161 3157 3151 3142 3137 3130 3124 3117 3110
3188 3191 3194 3195 3198 3201 3203 3204 3204 3205 3205 3205 3205 3205 3204 3204 3204 3203 3202 3201 3200 3198 3196 3195 3193 3191 3189 3185 3181 3178 3175 3172 3169 3168 3166 3160 3156 3153 3144 3139 3134 3127 3120 3114 3107
3187 3190 3193 3195 3197 3200 3202 3203 3205 3205 3206 3205 3205 3204 3204 3204 3204 3202 3201 3200 3199 3197 3195 3193 3191 3187 3183 3181 3178 3172 3169 3168 3165 3163 3158 3155 3151 3144 3140 3136 3130 3124 3117 3111 3104
3185 3189 3192 3194 3196 3199 3201 3203 3204 3204 3205 3204 3204 3204 3204 3204 3202 3201 3200 3198 3196 3195 3193 3191 3189 3186 3181 3178 3174 3167 3166 3164 3161 3159 3156 3151 3146 3141 3136 3131 3125 3118 3113 3107 3101